owner,sensor,date,latitude,longitude,vertical_datum,sea_water_temperature,qcFlag 
DISL,ioos:station:DISL:CATA:1,2015-12-01T00:00:00Z,30.3085,-88.1395,0.0,18.92,2 
DISL,ioos:station:DISL:CATA:1,2015-12-01T00:30:00Z,30.3085,-88.1395,0.0,18.96,2 
DISL,ioos:station:DISL:CATA:1,2015-12-01T01:00:00Z,30.3085,-88.1395,0.0,18.94,2 
DISL,ioos:station:DISL:CATA:1,2015-12-01T01:30:00Z,30.3085,-88.1395,0.0,18.92,2 
DISL,ioos:station:DISL:CATA:1,2015-12-01T02:00:00Z,30.3085,-88.1395,0.0,18.84,2 
DISL,ioos:station:DISL:CATA:1,2015-12-01T02:30:00Z,30.3085,-88.1395,0.0,18.92,2 
DISL,ioos:station:DISL:CATA:1,2015-12-01T03:00:00Z,30.3085,-88.1395,0.0,18.9,2 
DISL,ioos:station:DISL:CATA:1,2015-12-01T03:30:00Z,30.3085,-88.1395,0.0,18.87,2 
DISL,ioos:station:DISL:CATA:1,2015-12-01T04:00:00Z,30.3085,-88.1395,0.0,18.82,2 
DISL,ioos:station:DISL:CATA:1,2015-12-01T04:30:00Z,30.3085,-88.1395,0.0,18.79,2 
DISL,ioos:station:DISL:CATA:1,2015-12-01T05:00:00Z,30.3085,-88.1395,0.0,18.79,2 
DISL,ioos:station:DISL:CATA:1,2015-12-01T05:30:00Z,30.3085,-88.1395,0.0,18.8,2 
DISL,ioos:station:DISL:CATA:1,2015-12-01T06:00:00Z,30.3085,-88.1395,0.0,18.83,2 
DISL,ioos:station:DISL:CATA:1,2015-12-01T06:30:00Z,30.3085,-88.1395,0.0,18.87,2 
DISL,ioos:station:DISL:CATA:1,2015-12-01T07:00:00Z,30.3085,-88.1395,0.0,18.9,2 
DISL,ioos:station:DISL:CATA:1,2015-12-01T07:30:00Z,30.3085,-88.1395,0.0,18.91,2 
DISL,ioos:station:DISL:CATA:1,2015-12-01T08:00:00Z,30.3085,-88.1395,0.0,18.92,2 
DISL,ioos:station:DISL:CATA:1,2015-12-01T08:30:00Z,30.3085,-88.1395,0.0,18.93,2 
DISL,ioos:station:DISL:CATA:1,2015-12-01T09:00:00Z,30.3085,-88.1395,0.0,18.95,2 
DISL,ioos:station:DISL:CATA:1,2015-12-01T09:30:00Z,30.3085,-88.1395,0.0,18.93,2 
DISL,ioos:station:DISL:CATA:1,2015-12-01T10:00:00Z,30.3085,-88.1395,0.0,18.93,2 
DISL,ioos:station:DISL:CATA:1,2015-12-01T10:30:00Z,30.3085,-88.1395,0.0,18.93,2 
DISL,ioos:station:DISL:CATA:1,2015-12-01T11:00:00Z,30.3085,-88.1395,0.0,18.95,2 
DISL,ioos:station:DISL:CATA:1,2015-12-01T11:30:00Z,30.3085,-88.1395,0.0,18.91,2 
DISL,ioos:station:DISL:CATA:1,2015-12-01T12:00:00Z,30.3085,-88.1395,0.0,18.72,2 
DISL,ioos:station:DISL:CATA:1,2015-12-01T12:30:00Z,30.3085,-88.1395,0.0,18.71,2 
DISL,ioos:station:DISL:CATA:1,2015-12-01T13:00:00Z,30.3085,-88.1395,0.0,18.79,2 
DISL,ioos:station:DISL:CATA:1,2015-12-01T13:30:00Z,30.3085,-88.1395,0.0,18.76,2 
DISL,ioos:station:DISL:CATA:1,2015-12-01T14:00:00Z,30.3085,-88.1395,0.0,18.84,2 
DISL,ioos:station:DISL:CATA:1,2015-12-01T14:30:00Z,30.3085,-88.1395,0.0,19.08,2 
DISL,ioos:station:DISL:CATA:1,2015-12-01T15:00:00Z,30.3085,-88.1395,0.0,19.12,2 
DISL,ioos:station:DISL:CATA:1,2015-12-01T15:30:00Z,30.3085,-88.1395,0.0,19.15,2 
DISL,ioos:station:DISL:CATA:1,2015-12-01T16:00:00Z,30.3085,-88.1395,0.0,19.09,2 
DISL,ioos:station:DISL:CATA:1,2015-12-01T16:30:00Z,30.3085,-88.1395,0.0,18.92,2 
DISL,ioos:station:DISL:CATA:1,2015-12-01T17:00:00Z,30.3085,-88.1395,0.0,18.91,2 
DISL,ioos:station:DISL:CATA:1,2015-12-01T17:30:00Z,30.3085,-88.1395,0.0,18.89,2 
DISL,ioos:station:DISL:CATA:1,2015-12-01T18:00:00Z,30.3085,-88.1395,0.0,19.01,2 
DISL,ioos:station:DISL:CATA:1,2015-12-01T18:30:00Z,30.3085,-88.1395,0.0,19.03,2 
DISL,ioos:station:DISL:CATA:1,2015-12-01T19:00:00Z,30.3085,-88.1395,0.0,19.12,2 
DISL,ioos:station:DISL:CATA:1,2015-12-01T19:30:00Z,30.3085,-88.1395,0.0,19.15,2 
DISL,ioos:station:DISL:CATA:1,2015-12-01T20:00:00Z,30.3085,-88.1395,0.0,19.36,2 
DISL,ioos:station:DISL:CATA:1,2015-12-01T20:30:00Z,30.3085,-88.1395,0.0,19.64,2 
DISL,ioos:station:DISL:CATA:1,2015-12-01T21:00:00Z,30.3085,-88.1395,0.0,19.59,2 
DISL,ioos:station:DISL:CATA:1,2015-12-01T21:30:00Z,30.3085,-88.1395,0.0,19.06,2 
DISL,ioos:station:DISL:CATA:1,2015-12-01T22:00:00Z,30.3085,-88.1395,0.0,19.03,2 
DISL,ioos:station:DISL:CATA:1,2015-12-01T22:30:00Z,30.3085,-88.1395,0.0,19.08,2 
DISL,ioos:station:DISL:CATA:1,2015-12-01T23:00:00Z,30.3085,-88.1395,0.0,19.29,2 
DISL,ioos:station:DISL:CATA:1,2015-12-01T23:30:00Z,30.3085,-88.1395,0.0,19.32,2 
DISL,ioos:station:DISL:CATA:1,2015-12-02T00:00:00Z,30.3085,-88.1395,0.0,19.38,2 
DISL,ioos:station:DISL:CATA:1,2015-12-02T00:30:00Z,30.3085,-88.1395,0.0,19.43,2 
DISL,ioos:station:DISL:CATA:1,2015-12-02T01:00:00Z,30.3085,-88.1395,0.0,19.51,2 
DISL,ioos:station:DISL:CATA:1,2015-12-02T01:30:00Z,30.3085,-88.1395,0.0,19.33,2 
DISL,ioos:station:DISL:CATA:1,2015-12-02T02:00:00Z,30.3085,-88.1395,0.0,19.49,2 
DISL,ioos:station:DISL:CATA:1,2015-12-02T02:30:00Z,30.3085,-88.1395,0.0,19.51,2 
DISL,ioos:station:DISL:CATA:1,2015-12-02T03:00:00Z,30.3085,-88.1395,0.0,19.5,2 
DISL,ioos:station:DISL:CATA:1,2015-12-02T03:30:00Z,30.3085,-88.1395,0.0,19.42,2 
DISL,ioos:station:DISL:CATA:1,2015-12-02T04:00:00Z,30.3085,-88.1395,0.0,19.39,2 
DISL,ioos:station:DISL:CATA:1,2015-12-02T04:30:00Z,30.3085,-88.1395,0.0,19.31,2 
DISL,ioos:station:DISL:CATA:1,2015-12-02T05:00:00Z,30.3085,-88.1395,0.0,19.26,2 
DISL,ioos:station:DISL:CATA:1,2015-12-02T05:30:00Z,30.3085,-88.1395,0.0,19.24,2 
DISL,ioos:station:DISL:CATA:1,2015-12-02T06:00:00Z,30.3085,-88.1395,0.0,19.22,2 
DISL,ioos:station:DISL:CATA:1,2015-12-02T06:30:00Z,30.3085,-88.1395,0.0,19.21,2 
DISL,ioos:station:DISL:CATA:1,2015-12-02T07:00:00Z,30.3085,-88.1395,0.0,19.22,2 
DISL,ioos:station:DISL:CATA:1,2015-12-02T07:30:00Z,30.3085,-88.1395,0.0,19.23,2 
DISL,ioos:station:DISL:CATA:1,2015-12-02T08:00:00Z,30.3085,-88.1395,0.0,19.24,2 
DISL,ioos:station:DISL:CATA:1,2015-12-02T08:30:00Z,30.3085,-88.1395,0.0,19.25,2 
DISL,ioos:station:DISL:CATA:1,2015-12-02T09:00:00Z,30.3085,-88.1395,0.0,19.26,2 
DISL,ioos:station:DISL:CATA:1,2015-12-02T09:30:00Z,30.3085,-88.1395,0.0,19.26,2 
DISL,ioos:station:DISL:CATA:1,2015-12-02T10:00:00Z,30.3085,-88.1395,0.0,19.25,2 
DISL,ioos:station:DISL:CATA:1,2015-12-02T10:30:00Z,30.3085,-88.1395,0.0,19.28,2 
DISL,ioos:station:DISL:CATA:1,2015-12-02T11:00:00Z,30.3085,-88.1395,0.0,19.27,2 
DISL,ioos:station:DISL:CATA:1,2015-12-02T11:30:00Z,30.3085,-88.1395,0.0,19.22,2 
DISL,ioos:station:DISL:CATA:1,2015-12-02T12:00:00Z,30.3085,-88.1395,0.0,19.26,2 
DISL,ioos:station:DISL:CATA:1,2015-12-02T12:30:00Z,30.3085,-88.1395,0.0,19.26,2 
DISL,ioos:station:DISL:CATA:1,2015-12-02T13:00:00Z,30.3085,-88.1395,0.0,19.26,2 
DISL,ioos:station:DISL:CATA:1,2015-12-02T13:30:00Z,30.3085,-88.1395,0.0,18.86,2 
DISL,ioos:station:DISL:CATA:1,2015-12-02T14:00:00Z,30.3085,-88.1395,0.0,18.6,2 
DISL,ioos:station:DISL:CATA:1,2015-12-02T14:30:00Z,30.3085,-88.1395,0.0,18.67,2 
DISL,ioos:station:DISL:CATA:1,2015-12-02T15:00:00Z,30.3085,-88.1395,0.0,18.48,2 
DISL,ioos:station:DISL:CATA:1,2015-12-02T15:30:00Z,30.3085,-88.1395,0.0,18.49,2 
DISL,ioos:station:DISL:CATA:1,2015-12-02T16:00:00Z,30.3085,-88.1395,0.0,18.45,2 
DISL,ioos:station:DISL:CATA:1,2015-12-02T16:30:00Z,30.3085,-88.1395,0.0,18.44,2 
DISL,ioos:station:DISL:CATA:1,2015-12-02T17:00:00Z,30.3085,-88.1395,0.0,18.43,2 
DISL,ioos:station:DISL:CATA:1,2015-12-02T17:30:00Z,30.3085,-88.1395,0.0,18.43,2 
DISL,ioos:station:DISL:CATA:1,2015-12-02T18:00:00Z,30.3085,-88.1395,0.0,18.45,2 
DISL,ioos:station:DISL:CATA:1,2015-12-02T18:30:00Z,30.3085,-88.1395,0.0,18.48,2 
DISL,ioos:station:DISL:CATA:1,2015-12-02T19:00:00Z,30.3085,-88.1395,0.0,18.49,2 
DISL,ioos:station:DISL:CATA:1,2015-12-02T19:30:00Z,30.3085,-88.1395,0.0,18.44,2 
DISL,ioos:station:DISL:CATA:1,2015-12-02T20:00:00Z,30.3085,-88.1395,0.0,18.37,2 
DISL,ioos:station:DISL:CATA:1,2015-12-02T20:30:00Z,30.3085,-88.1395,0.0,18.39,2 
DISL,ioos:station:DISL:CATA:1,2015-12-02T21:00:00Z,30.3085,-88.1395,0.0,18.41,2 
DISL,ioos:station:DISL:CATA:1,2015-12-02T21:30:00Z,30.3085,-88.1395,0.0,18.5,2 
DISL,ioos:station:DISL:CATA:1,2015-12-02T22:00:00Z,30.3085,-88.1395,0.0,18.58,2 
DISL,ioos:station:DISL:CATA:1,2015-12-02T22:30:00Z,30.3085,-88.1395,0.0,18.77,2 
DISL,ioos:station:DISL:CATA:1,2015-12-02T23:00:00Z,30.3085,-88.1395,0.0,18.8,2 
DISL,ioos:station:DISL:CATA:1,2015-12-02T23:30:00Z,30.3085,-88.1395,0.0,18.75,2 
DISL,ioos:station:DISL:CATA:1,2015-12-03T00:00:00Z,30.3085,-88.1395,0.0,18.53,2 
DISL,ioos:station:DISL:CATA:1,2015-12-03T00:30:00Z,30.3085,-88.1395,0.0,18.48,2 
DISL,ioos:station:DISL:CATA:1,2015-12-03T01:00:00Z,30.3085,-88.1395,0.0,18.65,2 
DISL,ioos:station:DISL:CATA:1,2015-12-03T01:30:00Z,30.3085,-88.1395,0.0,18.61,2 
DISL,ioos:station:DISL:CATA:1,2015-12-03T02:00:00Z,30.3085,-88.1395,0.0,18.53,2 
DISL,ioos:station:DISL:CATA:1,2015-12-03T02:30:00Z,30.3085,-88.1395,0.0,18.76,2 
DISL,ioos:station:DISL:CATA:1,2015-12-03T03:00:00Z,30.3085,-88.1395,0.0,18.91,2 
DISL,ioos:station:DISL:CATA:1,2015-12-03T03:30:00Z,30.3085,-88.1395,0.0,19.14,2 
DISL,ioos:station:DISL:CATA:1,2015-12-03T04:00:00Z,30.3085,-88.1395,0.0,19.08,2 
DISL,ioos:station:DISL:CATA:1,2015-12-03T04:30:00Z,30.3085,-88.1395,0.0,19.09,2 
DISL,ioos:station:DISL:CATA:1,2015-12-03T05:00:00Z,30.3085,-88.1395,0.0,19.21,2 
DISL,ioos:station:DISL:CATA:1,2015-12-03T05:30:00Z,30.3085,-88.1395,0.0,19.19,2 
DISL,ioos:station:DISL:CATA:1,2015-12-03T06:00:00Z,30.3085,-88.1395,0.0,19.3,2 
DISL,ioos:station:DISL:CATA:1,2015-12-03T06:30:00Z,30.3085,-88.1395,0.0,19.32,2 
DISL,ioos:station:DISL:CATA:1,2015-12-03T07:00:00Z,30.3085,-88.1395,0.0,19.34,2 
DISL,ioos:station:DISL:CATA:1,2015-12-03T07:30:00Z,30.3085,-88.1395,0.0,19.38,2 
DISL,ioos:station:DISL:CATA:1,2015-12-03T08:00:00Z,30.3085,-88.1395,0.0,19.39,2 
DISL,ioos:station:DISL:CATA:1,2015-12-03T08:30:00Z,30.3085,-88.1395,0.0,19.42,2 
DISL,ioos:station:DISL:CATA:1,2015-12-03T09:00:00Z,30.3085,-88.1395,0.0,19.46,2 
DISL,ioos:station:DISL:CATA:1,2015-12-03T09:30:00Z,30.3085,-88.1395,0.0,19.28,2 
DISL,ioos:station:DISL:CATA:1,2015-12-03T10:00:00Z,30.3085,-88.1395,0.0,18.66,2 
DISL,ioos:station:DISL:CATA:1,2015-12-03T10:30:00Z,30.3085,-88.1395,0.0,17.97,2 
DISL,ioos:station:DISL:CATA:1,2015-12-03T11:00:00Z,30.3085,-88.1395,0.0,17.61,2 
DISL,ioos:station:DISL:CATA:1,2015-12-03T11:30:00Z,30.3085,-88.1395,0.0,17.67,2 
DISL,ioos:station:DISL:CATA:1,2015-12-03T12:00:00Z,30.3085,-88.1395,0.0,17.58,2 
DISL,ioos:station:DISL:CATA:1,2015-12-03T12:30:00Z,30.3085,-88.1395,0.0,17.53,2 
DISL,ioos:station:DISL:CATA:1,2015-12-03T13:00:00Z,30.3085,-88.1395,0.0,17.49,2 
DISL,ioos:station:DISL:CATA:1,2015-12-03T13:30:00Z,30.3085,-88.1395,0.0,17.46,2 
DISL,ioos:station:DISL:CATA:1,2015-12-03T14:00:00Z,30.3085,-88.1395,0.0,17.33,2 
DISL,ioos:station:DISL:CATA:1,2015-12-03T14:30:00Z,30.3085,-88.1395,0.0,17.27,2 
DISL,ioos:station:DISL:CATA:1,2015-12-03T15:00:00Z,30.3085,-88.1395,0.0,17.22,2 
DISL,ioos:station:DISL:CATA:1,2015-12-03T15:30:00Z,30.3085,-88.1395,0.0,17.31,2 
DISL,ioos:station:DISL:CATA:1,2015-12-03T16:00:00Z,30.3085,-88.1395,0.0,17.24,2 
DISL,ioos:station:DISL:CATA:1,2015-12-03T16:30:00Z,30.3085,-88.1395,0.0,17.18,2 
DISL,ioos:station:DISL:CATA:1,2015-12-03T17:00:00Z,30.3085,-88.1395,0.0,17.11,2 
DISL,ioos:station:DISL:CATA:1,2015-12-03T17:30:00Z,30.3085,-88.1395,0.0,17.07,2 
DISL,ioos:station:DISL:CATA:1,2015-12-03T18:00:00Z,30.3085,-88.1395,0.0,17.04,2 
DISL,ioos:station:DISL:CATA:1,2015-12-03T18:30:00Z,30.3085,-88.1395,0.0,17.02,2 
DISL,ioos:station:DISL:CATA:1,2015-12-03T19:00:00Z,30.3085,-88.1395,0.0,17.1,2 
DISL,ioos:station:DISL:CATA:1,2015-12-03T19:30:00Z,30.3085,-88.1395,0.0,17.07,2 
DISL,ioos:station:DISL:CATA:1,2015-12-03T20:00:00Z,30.3085,-88.1395,0.0,17.1,2 
DISL,ioos:station:DISL:CATA:1,2015-12-03T20:30:00Z,30.3085,-88.1395,0.0,17.12,2 
DISL,ioos:station:DISL:CATA:1,2015-12-03T21:00:00Z,30.3085,-88.1395,0.0,17.11,2 
DISL,ioos:station:DISL:CATA:1,2015-12-03T21:30:00Z,30.3085,-88.1395,0.0,16.9,2 
DISL,ioos:station:DISL:CATA:1,2015-12-03T22:00:00Z,30.3085,-88.1395,0.0,16.3,2 
DISL,ioos:station:DISL:CATA:1,2015-12-03T22:30:00Z,30.3085,-88.1395,0.0,16.13,2 
DISL,ioos:station:DISL:CATA:1,2015-12-03T23:00:00Z,30.3085,-88.1395,0.0,16.23,2 
DISL,ioos:station:DISL:CATA:1,2015-12-03T23:30:00Z,30.3085,-88.1395,0.0,16.11,2 
DISL,ioos:station:DISL:CATA:1,2015-12-04T00:00:00Z,30.3085,-88.1395,0.0,16.26,2 
DISL,ioos:station:DISL:CATA:1,2015-12-04T00:30:00Z,30.3085,-88.1395,0.0,16.27,2 
DISL,ioos:station:DISL:CATA:1,2015-12-04T01:00:00Z,30.3085,-88.1395,0.0,16.29,2 
DISL,ioos:station:DISL:CATA:1,2015-12-04T01:30:00Z,30.3085,-88.1395,0.0,16.29,2 
DISL,ioos:station:DISL:CATA:1,2015-12-04T02:00:00Z,30.3085,-88.1395,0.0,16.23,2 
DISL,ioos:station:DISL:CATA:1,2015-12-04T02:30:00Z,30.3085,-88.1395,0.0,15.88,2 
DISL,ioos:station:DISL:CATA:1,2015-12-04T03:00:00Z,30.3085,-88.1395,0.0,15.82,2 
DISL,ioos:station:DISL:CATA:1,2015-12-04T03:30:00Z,30.3085,-88.1395,0.0,15.82,2 
DISL,ioos:station:DISL:CATA:1,2015-12-04T04:00:00Z,30.3085,-88.1395,0.0,15.75,2 
DISL,ioos:station:DISL:CATA:1,2015-12-04T04:30:00Z,30.3085,-88.1395,0.0,15.63,2 
DISL,ioos:station:DISL:CATA:1,2015-12-04T05:00:00Z,30.3085,-88.1395,0.0,15.64,2 
DISL,ioos:station:DISL:CATA:1,2015-12-04T05:30:00Z,30.3085,-88.1395,0.0,15.61,2 
DISL,ioos:station:DISL:CATA:1,2015-12-04T06:00:00Z,30.3085,-88.1395,0.0,15.61,2 
DISL,ioos:station:DISL:CATA:1,2015-12-04T06:30:00Z,30.3085,-88.1395,0.0,15.64,2 
DISL,ioos:station:DISL:CATA:1,2015-12-04T07:00:00Z,30.3085,-88.1395,0.0,15.54,2 
DISL,ioos:station:DISL:CATA:1,2015-12-04T07:30:00Z,30.3085,-88.1395,0.0,15.52,2 
DISL,ioos:station:DISL:CATA:1,2015-12-04T08:00:00Z,30.3085,-88.1395,0.0,15.49,2 
DISL,ioos:station:DISL:CATA:1,2015-12-04T08:30:00Z,30.3085,-88.1395,0.0,15.41,2 
DISL,ioos:station:DISL:CATA:1,2015-12-04T09:00:00Z,30.3085,-88.1395,0.0,14.9,2 
DISL,ioos:station:DISL:CATA:1,2015-12-04T09:30:00Z,30.3085,-88.1395,0.0,15.06,2 
DISL,ioos:station:DISL:CATA:1,2015-12-04T10:00:00Z,30.3085,-88.1395,0.0,15.1,2 
DISL,ioos:station:DISL:CATA:1,2015-12-04T10:30:00Z,30.3085,-88.1395,0.0,15.15,2 
DISL,ioos:station:DISL:CATA:1,2015-12-04T11:00:00Z,30.3085,-88.1395,0.0,15.11,2 
DISL,ioos:station:DISL:CATA:1,2015-12-04T11:30:00Z,30.3085,-88.1395,0.0,14.74,2 
DISL,ioos:station:DISL:CATA:1,2015-12-04T12:00:00Z,30.3085,-88.1395,0.0,14.0,2 
DISL,ioos:station:DISL:CATA:1,2015-12-04T12:30:00Z,30.3085,-88.1395,0.0,14.07,2 
DISL,ioos:station:DISL:CATA:1,2015-12-04T13:00:00Z,30.3085,-88.1395,0.0,14.07,2 
DISL,ioos:station:DISL:CATA:1,2015-12-04T13:30:00Z,30.3085,-88.1395,0.0,14.11,2 
DISL,ioos:station:DISL:CATA:1,2015-12-04T14:30:00Z,30.3085,-88.1395,0.0,14.21,2 
DISL,ioos:station:DISL:CATA:1,2015-12-04T15:00:00Z,30.3085,-88.1395,0.0,13.64,2 
DISL,ioos:station:DISL:CATA:1,2015-12-04T15:30:00Z,30.3085,-88.1395,0.0,13.5,2 
DISL,ioos:station:DISL:CATA:1,2015-12-04T16:00:00Z,30.3085,-88.1395,0.0,13.68,2 
DISL,ioos:station:DISL:CATA:1,2015-12-04T16:30:00Z,30.3085,-88.1395,0.0,13.9,2 
DISL,ioos:station:DISL:CATA:1,2015-12-04T17:00:00Z,30.3085,-88.1395,0.0,14.12,2 
DISL,ioos:station:DISL:CATA:1,2015-12-04T17:30:00Z,30.3085,-88.1395,0.0,14.38,2 
DISL,ioos:station:DISL:CATA:1,2015-12-04T18:00:00Z,30.3085,-88.1395,0.0,14.44,2 
DISL,ioos:station:DISL:CATA:1,2015-12-04T18:30:00Z,30.3085,-88.1395,0.0,14.46,2 
DISL,ioos:station:DISL:CATA:1,2015-12-04T19:00:00Z,30.3085,-88.1395,0.0,14.45,2 
DISL,ioos:station:DISL:CATA:1,2015-12-04T19:30:00Z,30.3085,-88.1395,0.0,14.47,2 
DISL,ioos:station:DISL:CATA:1,2015-12-04T20:00:00Z,30.3085,-88.1395,0.0,14.44,2 
DISL,ioos:station:DISL:CATA:1,2015-12-04T20:30:00Z,30.3085,-88.1395,0.0,14.26,2 
DISL,ioos:station:DISL:CATA:1,2015-12-04T21:00:00Z,30.3085,-88.1395,0.0,14.48,2 
DISL,ioos:station:DISL:CATA:1,2015-12-04T21:30:00Z,30.3085,-88.1395,0.0,14.55,2 
DISL,ioos:station:DISL:CATA:1,2015-12-04T22:00:00Z,30.3085,-88.1395,0.0,14.25,2 
DISL,ioos:station:DISL:CATA:1,2015-12-04T22:30:00Z,30.3085,-88.1395,0.0,14.1,2 
DISL,ioos:station:DISL:CATA:1,2015-12-04T23:00:00Z,30.3085,-88.1395,0.0,13.96,2 
DISL,ioos:station:DISL:CATA:1,2015-12-04T23:30:00Z,30.3085,-88.1395,0.0,14.43,2 
DISL,ioos:station:DISL:CATA:1,2015-12-05T00:00:00Z,30.3085,-88.1395,0.0,14.63,2 
DISL,ioos:station:DISL:CATA:1,2015-12-05T00:30:00Z,30.3085,-88.1395,0.0,14.68,2 
DISL,ioos:station:DISL:CATA:1,2015-12-05T01:00:00Z,30.3085,-88.1395,0.0,14.61,2 
DISL,ioos:station:DISL:CATA:1,2015-12-05T01:30:00Z,30.3085,-88.1395,0.0,14.53,2 
DISL,ioos:station:DISL:CATA:1,2015-12-05T02:00:00Z,30.3085,-88.1395,0.0,14.23,2 
DISL,ioos:station:DISL:CATA:1,2015-12-05T02:30:00Z,30.3085,-88.1395,0.0,14.34,2 
DISL,ioos:station:DISL:CATA:1,2015-12-05T03:00:00Z,30.3085,-88.1395,0.0,14.25,2 
DISL,ioos:station:DISL:CATA:1,2015-12-05T03:30:00Z,30.3085,-88.1395,0.0,14.06,2 
DISL,ioos:station:DISL:CATA:1,2015-12-05T04:00:00Z,30.3085,-88.1395,0.0,13.97,2 
DISL,ioos:station:DISL:CATA:1,2015-12-05T04:30:00Z,30.3085,-88.1395,0.0,14.09,2 
DISL,ioos:station:DISL:CATA:1,2015-12-05T05:00:00Z,30.3085,-88.1395,0.0,14.16,2 
DISL,ioos:station:DISL:CATA:1,2015-12-05T05:30:00Z,30.3085,-88.1395,0.0,14.02,2 
DISL,ioos:station:DISL:CATA:1,2015-12-05T06:00:00Z,30.3085,-88.1395,0.0,13.82,2 
DISL,ioos:station:DISL:CATA:1,2015-12-05T06:30:00Z,30.3085,-88.1395,0.0,13.65,2 
DISL,ioos:station:DISL:CATA:1,2015-12-05T07:00:00Z,30.3085,-88.1395,0.0,13.58,2 
DISL,ioos:station:DISL:CATA:1,2015-12-05T07:30:00Z,30.3085,-88.1395,0.0,13.58,2 
DISL,ioos:station:DISL:CATA:1,2015-12-05T08:00:00Z,30.3085,-88.1395,0.0,13.58,2 
DISL,ioos:station:DISL:CATA:1,2015-12-05T08:30:00Z,30.3085,-88.1395,0.0,13.55,2 
DISL,ioos:station:DISL:CATA:1,2015-12-05T09:00:00Z,30.3085,-88.1395,0.0,13.52,2 
DISL,ioos:station:DISL:CATA:1,2015-12-05T09:30:00Z,30.3085,-88.1395,0.0,13.54,2 
DISL,ioos:station:DISL:CATA:1,2015-12-05T10:00:00Z,30.3085,-88.1395,0.0,13.56,2 
DISL,ioos:station:DISL:CATA:1,2015-12-05T10:30:00Z,30.3085,-88.1395,0.0,13.59,2 
DISL,ioos:station:DISL:CATA:1,2015-12-05T11:00:00Z,30.3085,-88.1395,0.0,13.54,2 
DISL,ioos:station:DISL:CATA:1,2015-12-05T11:30:00Z,30.3085,-88.1395,0.0,13.52,2 
DISL,ioos:station:DISL:CATA:1,2015-12-05T12:00:00Z,30.3085,-88.1395,0.0,13.55,2 
DISL,ioos:station:DISL:CATA:1,2015-12-05T12:30:00Z,30.3085,-88.1395,0.0,13.56,2 
DISL,ioos:station:DISL:CATA:1,2015-12-05T13:00:00Z,30.3085,-88.1395,0.0,13.59,2 
DISL,ioos:station:DISL:CATA:1,2015-12-05T13:30:00Z,30.3085,-88.1395,0.0,13.6,2 
DISL,ioos:station:DISL:CATA:1,2015-12-05T14:00:00Z,30.3085,-88.1395,0.0,13.63,2 
DISL,ioos:station:DISL:CATA:1,2015-12-05T14:30:00Z,30.3085,-88.1395,0.0,13.67,2 
DISL,ioos:station:DISL:CATA:1,2015-12-05T15:00:00Z,30.3085,-88.1395,0.0,13.75,2 
DISL,ioos:station:DISL:CATA:1,2015-12-05T15:30:00Z,30.3085,-88.1395,0.0,13.83,2 
DISL,ioos:station:DISL:CATA:1,2015-12-05T16:00:00Z,30.3085,-88.1395,0.0,13.97,2 
DISL,ioos:station:DISL:CATA:1,2015-12-05T16:30:00Z,30.3085,-88.1395,0.0,14.05,2 
DISL,ioos:station:DISL:CATA:1,2015-12-05T17:00:00Z,30.3085,-88.1395,0.0,14.12,2 
DISL,ioos:station:DISL:CATA:1,2015-12-05T17:30:00Z,30.3085,-88.1395,0.0,14.19,2 
DISL,ioos:station:DISL:CATA:1,2015-12-05T18:00:00Z,30.3085,-88.1395,0.0,14.28,2 
DISL,ioos:station:DISL:CATA:1,2015-12-05T18:30:00Z,30.3085,-88.1395,0.0,14.37,2 
DISL,ioos:station:DISL:CATA:1,2015-12-05T19:00:00Z,30.3085,-88.1395,0.0,14.44,2 
DISL,ioos:station:DISL:CATA:1,2015-12-05T19:30:00Z,30.3085,-88.1395,0.0,14.46,2 
DISL,ioos:station:DISL:CATA:1,2015-12-05T20:00:00Z,30.3085,-88.1395,0.0,14.71,2 
DISL,ioos:station:DISL:CATA:1,2015-12-05T20:30:00Z,30.3085,-88.1395,0.0,14.84,2 
DISL,ioos:station:DISL:CATA:1,2015-12-05T21:00:00Z,30.3085,-88.1395,0.0,14.47,2 
DISL,ioos:station:DISL:CATA:1,2015-12-05T21:30:00Z,30.3085,-88.1395,0.0,14.51,2 
DISL,ioos:station:DISL:CATA:1,2015-12-05T22:00:00Z,30.3085,-88.1395,0.0,14.62,2 
DISL,ioos:station:DISL:CATA:1,2015-12-05T22:30:00Z,30.3085,-88.1395,0.0,14.65,2 
DISL,ioos:station:DISL:CATA:1,2015-12-05T23:00:00Z,30.3085,-88.1395,0.0,14.59,2 
DISL,ioos:station:DISL:CATA:1,2015-12-05T23:30:00Z,30.3085,-88.1395,0.0,14.47,2 
DISL,ioos:station:DISL:CATA:1,2015-12-06T00:00:00Z,30.3085,-88.1395,0.0,14.25,2 
DISL,ioos:station:DISL:CATA:1,2015-12-06T00:30:00Z,30.3085,-88.1395,0.0,14.13,2 
DISL,ioos:station:DISL:CATA:1,2015-12-06T01:00:00Z,30.3085,-88.1395,0.0,14.0,2 
DISL,ioos:station:DISL:CATA:1,2015-12-06T01:30:00Z,30.3085,-88.1395,0.0,13.93,2 
DISL,ioos:station:DISL:CATA:1,2015-12-06T02:00:00Z,30.3085,-88.1395,0.0,13.93,2 
DISL,ioos:station:DISL:CATA:1,2015-12-06T02:30:00Z,30.3085,-88.1395,0.0,13.94,2 
DISL,ioos:station:DISL:CATA:1,2015-12-06T03:00:00Z,30.3085,-88.1395,0.0,14.19,2 
DISL,ioos:station:DISL:CATA:1,2015-12-06T03:30:00Z,30.3085,-88.1395,0.0,14.24,2 
DISL,ioos:station:DISL:CATA:1,2015-12-06T04:00:00Z,30.3085,-88.1395,0.0,14.32,2 
DISL,ioos:station:DISL:CATA:1,2015-12-06T04:30:00Z,30.3085,-88.1395,0.0,14.42,2 
DISL,ioos:station:DISL:CATA:1,2015-12-06T05:00:00Z,30.3085,-88.1395,0.0,14.6,2 
DISL,ioos:station:DISL:CATA:1,2015-12-06T05:30:00Z,30.3085,-88.1395,0.0,14.42,2 
DISL,ioos:station:DISL:CATA:1,2015-12-06T06:00:00Z,30.3085,-88.1395,0.0,14.45,2 
DISL,ioos:station:DISL:CATA:1,2015-12-06T06:30:00Z,30.3085,-88.1395,0.0,14.23,2 
DISL,ioos:station:DISL:CATA:1,2015-12-06T07:00:00Z,30.3085,-88.1395,0.0,14.24,2 
DISL,ioos:station:DISL:CATA:1,2015-12-06T07:30:00Z,30.3085,-88.1395,0.0,14.22,2 
DISL,ioos:station:DISL:CATA:1,2015-12-06T08:00:00Z,30.3085,-88.1395,0.0,14.23,2 
DISL,ioos:station:DISL:CATA:1,2015-12-06T08:30:00Z,30.3085,-88.1395,0.0,14.24,2 
DISL,ioos:station:DISL:CATA:1,2015-12-06T09:00:00Z,30.3085,-88.1395,0.0,14.24,2 
DISL,ioos:station:DISL:CATA:1,2015-12-06T09:30:00Z,30.3085,-88.1395,0.0,14.23,2 
DISL,ioos:station:DISL:CATA:1,2015-12-06T10:00:00Z,30.3085,-88.1395,0.0,14.19,2 
DISL,ioos:station:DISL:CATA:1,2015-12-06T10:30:00Z,30.3085,-88.1395,0.0,14.14,2 
DISL,ioos:station:DISL:CATA:1,2015-12-06T11:00:00Z,30.3085,-88.1395,0.0,14.09,2 
DISL,ioos:station:DISL:CATA:1,2015-12-06T11:30:00Z,30.3085,-88.1395,0.0,14.07,2 
DISL,ioos:station:DISL:CATA:1,2015-12-06T12:00:00Z,30.3085,-88.1395,0.0,14.09,2 
DISL,ioos:station:DISL:CATA:1,2015-12-06T12:30:00Z,30.3085,-88.1395,0.0,14.07,2 
DISL,ioos:station:DISL:CATA:1,2015-12-06T13:00:00Z,30.3085,-88.1395,0.0,14.06,2 
DISL,ioos:station:DISL:CATA:1,2015-12-06T13:30:00Z,30.3085,-88.1395,0.0,14.05,2 
DISL,ioos:station:DISL:CATA:1,2015-12-06T14:00:00Z,30.3085,-88.1395,0.0,14.08,2 
DISL,ioos:station:DISL:CATA:1,2015-12-06T14:30:00Z,30.3085,-88.1395,0.0,14.1,2 
DISL,ioos:station:DISL:CATA:1,2015-12-06T15:00:00Z,30.3085,-88.1395,0.0,14.12,2 
DISL,ioos:station:DISL:CATA:1,2015-12-06T15:30:00Z,30.3085,-88.1395,0.0,14.19,2 
DISL,ioos:station:DISL:CATA:1,2015-12-06T16:00:00Z,30.3085,-88.1395,0.0,14.28,2 
DISL,ioos:station:DISL:CATA:1,2015-12-06T16:30:00Z,30.3085,-88.1395,0.0,14.33,2 
DISL,ioos:station:DISL:CATA:1,2015-12-06T17:00:00Z,30.3085,-88.1395,0.0,14.38,2 
DISL,ioos:station:DISL:CATA:1,2015-12-06T17:30:00Z,30.3085,-88.1395,0.0,14.43,2 
DISL,ioos:station:DISL:CATA:1,2015-12-06T18:00:00Z,30.3085,-88.1395,0.0,14.45,2 
DISL,ioos:station:DISL:CATA:1,2015-12-06T18:30:00Z,30.3085,-88.1395,0.0,14.57,2 
DISL,ioos:station:DISL:CATA:1,2015-12-06T19:00:00Z,30.3085,-88.1395,0.0,14.67,2 
DISL,ioos:station:DISL:CATA:1,2015-12-06T19:30:00Z,30.3085,-88.1395,0.0,14.76,2 
DISL,ioos:station:DISL:CATA:1,2015-12-06T20:00:00Z,30.3085,-88.1395,0.0,14.88,2 
DISL,ioos:station:DISL:CATA:1,2015-12-06T20:30:00Z,30.3085,-88.1395,0.0,14.98,2 
DISL,ioos:station:DISL:CATA:1,2015-12-06T21:00:00Z,30.3085,-88.1395,0.0,15.04,2 
DISL,ioos:station:DISL:CATA:1,2015-12-06T21:30:00Z,30.3085,-88.1395,0.0,14.99,2 
DISL,ioos:station:DISL:CATA:1,2015-12-06T22:00:00Z,30.3085,-88.1395,0.0,14.93,2 
DISL,ioos:station:DISL:CATA:1,2015-12-06T22:30:00Z,30.3085,-88.1395,0.0,14.82,2 
DISL,ioos:station:DISL:CATA:1,2015-12-06T23:00:00Z,30.3085,-88.1395,0.0,14.78,2 
DISL,ioos:station:DISL:CATA:1,2015-12-06T23:30:00Z,30.3085,-88.1395,0.0,14.71,2 
DISL,ioos:station:DISL:CATA:1,2015-12-07T00:00:00Z,30.3085,-88.1395,0.0,14.63,2 
DISL,ioos:station:DISL:CATA:1,2015-12-07T00:30:00Z,30.3085,-88.1395,0.0,14.63,2 
DISL,ioos:station:DISL:CATA:1,2015-12-07T01:00:00Z,30.3085,-88.1395,0.0,14.63,2 
DISL,ioos:station:DISL:CATA:1,2015-12-07T01:30:00Z,30.3085,-88.1395,0.0,14.65,2 
DISL,ioos:station:DISL:CATA:1,2015-12-07T02:00:00Z,30.3085,-88.1395,0.0,14.74,2 
DISL,ioos:station:DISL:CATA:1,2015-12-07T02:30:00Z,30.3085,-88.1395,0.0,14.82,2 
DISL,ioos:station:DISL:CATA:1,2015-12-07T03:00:00Z,30.3085,-88.1395,0.0,14.91,2 
DISL,ioos:station:DISL:CATA:1,2015-12-07T03:30:00Z,30.3085,-88.1395,0.0,15.0,2 